Weather History for Opa Locka, FL

Change the Weather History Date:

Thursday, November 29, 2012

  Actual Average Record
Temperature  
Mean Temperature 70 °F -  
Max Temperature 79 °F 79 °F 88 °F (1986)
Min Temperature 60 °F 65 °F 40 °F (1950)
Cooling Degree Days 4    
Growing Degree Days 20 (Base 50)    
Moisture  
Dew Point 62 °F    
Average Humidity 76    
Maximum Humidity 97    
Minimum Humidity 58    
Precipitation  
Precipitation 0.01 in - - ()
Sea Level Pressure  
Sea Level Pressure 30.18 in    
Wind  
Wind Speed 11 mph (NE)    
Max Wind Speed 21 mph    
Max Gust Speed 30 mph    
Visibility 10 miles    
Events Rain    
Averages and records for this station are not official NWS values.
T = Trace of Precipitation, MM = Missing Value Source: NWS Daily Summary

Daily Weather History Graph

Daily Weather History Graph

Search for Another Location

Airport:

Trip Planner

Search our weather history database for the weather conditions in past years. The results will help you decide how hot, cold, wet, or windy it might be!

Date:

Astronomy

Nov. 29, 2012 Rise Set
Actual Time 6:49 AM EST 5:29 PM EST
Civil Twilight 6:24 AM EST 5:54 PM EST
Nautical Twilight 5:56 AM EST 6:22 PM EST
Astronomical Twilight 5:28 AM EST 6:50 PM EST
Moon 6:31 PM EST (11/29) 7:34 AM EST (11/29)
Length of Visible Light 11h 29m
Length of Day
10h 39m
Full, 99% of the Moon is Illuminated
Nov 29
Full
Dec 6
Last Quarter
Dec 13
New
Dec 20
First Quarter
Dec 28
Full

Hourly Weather History & Observations

Time (EST) Temp. Dew Point Humidity Pressure Visibility Wind Dir Wind Speed Gust Speed Precip Events Conditions
12:53 AM 64.9 °F 62.1 °F 90% 30.17 in 10.0 mi NNW 6.9 mph - N/A   Partly Cloudy
1:53 AM 64.0 °F 62.1 °F 93% 30.16 in 10.0 mi NNW 8.1 mph - N/A   Scattered Clouds
2:53 AM 63.0 °F 61.0 °F 93% 30.16 in 10.0 mi NNW 9.2 mph - N/A   Partly Cloudy
3:53 AM 62.1 °F 60.1 °F 93% 30.16 in 10.0 mi NNW 6.9 mph - N/A   Clear
4:53 AM 60.1 °F 59.0 °F 96% 30.16 in 10.0 mi North 8.1 mph - 0.01 in   Clear
5:53 AM 60.1 °F 59.0 °F 96% 30.17 in 10.0 mi North 5.8 mph - N/A   Clear
6:53 AM 61.0 °F 60.1 °F 97% 30.18 in 10.0 mi North 6.9 mph - N/A   Mostly Cloudy
7:53 AM 64.9 °F 63.0 °F 93% 30.19 in 10.0 mi North 6.9 mph - N/A   Mostly Cloudy
8:53 AM 69.1 °F 64.0 °F 84% 30.21 in 10.0 mi North 6.9 mph - N/A   Partly Cloudy
9:53 AM 75.9 °F 63.0 °F 64% 30.21 in 10.0 mi ENE 15.0 mph 24.2 mph N/A   Clear
10:53 AM 78.1 °F 62.1 °F 58% 30.21 in 10.0 mi ENE 20.7 mph 29.9 mph N/A   Partly Cloudy
11:53 AM 78.1 °F 63.0 °F 60% 30.20 in 10.0 mi East 20.7 mph - 0.00 in   Mostly Cloudy
12:53 PM 79.0 °F 63.0 °F 58% 30.19 in 10.0 mi East 18.4 mph 24.2 mph N/A   Scattered Clouds
1:53 PM 77.0 °F 63.0 °F 62% 30.17 in 10.0 mi ENE 16.1 mph - N/A   Mostly Cloudy
2:53 PM 75.9 °F 63.0 °F 64% 30.15 in 10.0 mi ENE 16.1 mph 25.3 mph N/A   Mostly Cloudy
3:53 PM 75.0 °F 62.1 °F 64% 30.16 in 10.0 mi ENE 17.3 mph - N/A   Mostly Cloudy
4:53 PM 75.0 °F 63.0 °F 66% 30.16 in 10.0 mi ENE 18.4 mph - N/A   Mostly Cloudy
5:53 PM 73.9 °F 63.0 °F 68% 30.17 in 10.0 mi NE 12.7 mph - 0.00 in Rain Light Rain
6:53 PM 73.9 °F 63.0 °F 68% 30.18 in 10.0 mi NE 13.8 mph - 0.00 in   Mostly Cloudy
7:53 PM 73.0 °F 62.1 °F 68% 30.19 in 10.0 mi ENE 10.4 mph - N/A   Clear
8:53 PM 73.0 °F 63.0 °F 71% 30.19 in 10.0 mi ENE 13.8 mph - N/A   Mostly Cloudy
9:53 PM 72.0 °F 63.0 °F 73% 30.19 in 10.0 mi ENE 9.2 mph - N/A   Mostly Cloudy
10:53 PM 72.0 °F 62.1 °F 71% 30.20 in 10.0 mi ENE 15.0 mph - N/A   Partly Cloudy
11:53 PM 72.0 °F 61.0 °F 68% 30.18 in 10.0 mi ENE 12.7 mph - N/A   Clear